YZ-1 R/B, 43584

Orbit data source: Space-Track

YZ-1 R/B, 43584 is space debris originally from a launch on Sun, 29 Jul 2018 UTC launched from the Xichang Space Center, China (XSC). Debris objects in space refer to the collection of defunct objects orbiting the Earth. Examples of debris include non-operational satellites, rocket bodies, and fragments generated from explosions, collisions, or faulty payload assembly.

Loading next visibility...
Identifier
43584, 2018-062D
Orbit
Active
Last TLE update
17 hours ago
Origin
Manufacturer
CALT
Mission
Spacecraft
Bus & Motor
YZ-1, Unknown motor
Mass
~2,075 kg wet, ~2,075 kg dry
Launch date (UTC)
2018-07-29 (7 years ago)
Launch vehicle
Unknown
Launch site
Xichang Space Center, China (XSC)
Object type
Payload
Rocket body
Debris
Shape & HBR
Double Cone, 4 m
Radar Cross Section
5.890 m², Large (>1 m²)

Expand to show TLE details & history

TLE from 17 hours ago
0 YZ-1 R/B
1 43584U 18062D   25189.62166642  .00000094  00000-0  00000-0 0  9992
2 43584  54.0439 201.2845 0041613  44.0092 316.3691  1.78871202 45371
Epoch: 2025-07-08T14:55Z
TLE epoch observation values (Epoch: 2025-07-08T14:55:11.978Z)
Latitude
-0.00004°
Longitude
50.67889°
Altitude
22,202.566 km
Speed
3.74 km/s
True Right ascension
13h 25m 10s
True Declination
0° 00' 00"
Sunlit
Object was in daylight at epoch
Visualization orbit readout
Latitude
54.03302°
Longitude
138.74448°
Altitude
22,211.145 km
Speed
3.741 km/s
Apparent Right ascension
19h 05m 22s
Apparent Declination
57° 52' 35"
Sunlit
Object is in daylight
Visualization observer readout
Local Sidereal Time
19:46:56
Azimuth
343.012° N
Elevation
70.836°
Doppler factor
1
Orbital elements
Apogee altitude
22,407.712 km
Perigee altitude
22,169.131 km
Semi-major axis
28,666.558 km
Eccentricity
0.00416
Inclination
54.0439°
RAAN
201.2845°
Arg. of periapsis
44.0092°
True anomaly
Unknown
Mean anomaly
316.3691°
Eccentric anomaly
Unknown
Mean motion
0.44718 °/min
Orbital period
805.05 mins
BSTAR
0
Loading maneuver chart data...
Loading SW <> Apogee altitude chart data...
Loading historical data...
Loading historical data...
Loading historical data...
Loading historical data...
Loading historical data...
Loading historical data...
Loading historical data...
Other satellites on launch #62 in the year 2018 (2018-07-29 UTC)

YZ-1 R/B Visibility forecast

Observer location: undefined°, undefined°

Span
Click to sort rows by Start time (UTC) header in descending order
Start Az.
Max El. time (UTC)
Max El. Az.
Max El.
End time (UTC)
End Az.
257 mins2025-07-09 07:37:24.790Z342.988° N2025-07-09 08:07:24.790Z20.192° NNE43.704°2025-07-09 11:54:24.790Z144.381° SSE
|